Location: Mercogliano
(40.9167°N, 14.7333°E)
Time: 05:03:30
(UTC+00:00)

Cosmos 468 - Pass Details

Date: 18 September 2020
Orbit: 761 x 784 km, 74.0° (Epoch: 25 October)

Event Time Altitude Azimuth Distance (km) Brightness Sun altitude
Rises 19:11:57 0° 340° (NNW) 3,276 8.4 -24.1°
Reaches altitude 10° 19:14:20 10° 340° (NNW) 2,346 7.6 -24.5°
Maximum altitude 19:19:41 88° 255° (WSW) 790 4.4 -25.4°
Enters shadow 19:20:20 70° 168° (SSE) 833 4.4 -25.5°
